Location: Dover
(48.8500°N, 53.9833°W)
Time: 06:50:00
(UTC+00:00)

SAR-Lupe-1 - Pass Details

Date: 14 November 2025
Orbit: 477 x 487 km, 98.1° (Epoch: 19 February)

Event Time Altitude Azimuth Distance (km) Brightness Sun altitude
Rises 20:54:04 0° 161° (SSE) 2,524 7.7 -9.6°
Reaches altitude 10° 20:56:07 10° 160° (SSE) 1,651 6.7 -9.9°
Maximum altitude 20:59:39 77° 74° (ENE) 500 3.9 -10.5°
Drops below altitude 10° 21:03:14 10° 349° (NNW) 1,671 6.7 -11.0°
Sets 21:05:19 0° 348° (NNW) 2,558 7.7 -11.4°
